Weather in Uthai Thani

Thailand     15°22′08″N   100°02′28″E
temp.,
°C
wind,
m/s
gust,
m/s
humid.,
%
clouds,
%
prec.,
mm/h
press.,
hPa
HPBL,
m
16 may, sun
sun1601:00+29s4107118 0.3 1006389
04:00+28s497698 0.0 1005334
07:00+29s377628 0.0 1007345
10:00+34s45545 0.0 10081065
13:00+38s33418 0.0 10052179
16:00+39sse223427 0.0 10022763
19:00+33s38536 0.0 1003173
22:00+31s495633 0.0 1006298
17 may, mon
mon1701:00+29s5116694 0.0 1005404
04:00+28s510727 0.0 1005318
07:00+29s48745 0.0 1007336
10:00+35s44525 0.0 10081081
13:00+38s333860 0.0 10052375
16:00+39sse333241 0.0 10023008
19:00+34ssw584696 0.0 1003304
22:00+32ssw6105382 0.2 1006397
18 may, tue
tue1801:00+30s51165100 0.2 1005458
04:00+28sse497390 0.0 1005353
07:00+29s487797 0.0 1006362
10:00+35s45527 0.0 10081076
13:00+39s443623 0.0 10052406
16:00+39sse333252 0.0 10022959
19:00+34wsw254799 0.0 1004160
22:00+32ssw595313 0.0 1006420
19 may, wed
wed1901:00+29s51070100 0.1 1006514
04:00+28s497699 0.0 1005413
07:00+29s467788 0.0 1007372
10:00+34ssw445396 0.0 10071203
13:00+37s3342100 0.0 10042185
16:00+38sse3336100 0.0 10022151
19:00+33s385313 0.1 1003206
22:00+29s5127398 1.0 1006397
20 may, thu
thu2001:00+28s51178100 1.0 1005389
04:00+28s3882100 0.0 1005303
07:00+28s357999 0.0 1006254
10:00+34sw2252100 0.0 10071072
13:00+38sw2239100 0.0 10052098
16:00+38s233896 0.1 10021912
19:00+34s584996 0.1 1004321
22:00+31s7116199 0.0 1006499